Clarksburg, WV

12:42 PM EST on November 19, 2019 (GMT -0500)
Benedum

Weather History for KCKB - May, 2019

Change the Weather History Date:

Sunday, May 12, 2019

  Actual Average Record
Temperature  
Mean Temperature 60 °F -  
Max Temperature 63 °F 75 °F 92 °F (1930)
Min Temperature 57 °F 45 °F 29 °F (1938)
Degree Days  
Heating Degree Days 5    
Month to date heating degree days 20  
Growing Degree Days 10 (Base 50)    
Moisture  
Dew Point 57 °F    
Average Humidity 89    
Maximum Humidity 100    
Minimum Humidity 78    
Precipitation  
Precipitation 0.81 in - - ()
Month to date precipitation 1.58  
Year to date precipitation 15.71  
Sea Level Pressure  
Sea Level Pressure 29.69 in    
Wind  
Wind Speed 4 mph (West)    
Max Wind Speed 10 mph    
Max Gust Speed 13 mph    
Visibility 6 miles    
Events Rain    
Averages and records for this station are not official NWS values.
T = Trace of Precipitation, MM = Missing Value Source: NWS Daily Summary

Daily Weather History Graph

Daily Weather History Graph

Search for Another Location

Airport or City:

Astronomy

May. 12, 2019 Rise Set
Actual Time 6:10 AM EDT 8:24 PM EDT
Civil Twilight 5:40 AM EDT 8:54 PM EDT
Nautical Twilight 5:03 AM EDT 9:31 PM EDT
Astronomical Twilight 4:23 AM EDT 10:12 PM EDT
Moon 1:28 PM EDT (5/12) 2:46 AM EDT (5/12)
Length of Visible Light 15h 14m
Length of Day
14h 14m
First Quarter, 57% of the Moon is Illuminated
May 12
First Quarter
May 18
Full
May 26
Last Quarter
Jun 3
New
Jun 10
First Quarter

Hourly Weather History & Observations

Time (EDT) Temp. Dew Point Humidity Pressure Visibility Wind Dir Wind Speed Gust Speed Precip Events Conditions
12:33 AM 57.0 °F 54.0 °F 89% 29.80 in 7.0 mi Calm Calm - 0.00 in   Overcast
12:53 AM 57.0 °F 54.0 °F 89% 29.77 in 5.0 mi Calm Calm - 0.01 in Rain Light Rain
1:02 AM 57.0 °F 54.0 °F 89% 29.79 in 8.0 mi Calm Calm - 0.00 in Rain Light Rain
1:11 AM 57.0 °F 54.0 °F 89% 29.78 in 8.0 mi Calm Calm - 0.00 in   Overcast
1:22 AM 57.0 °F 54.0 °F 89% 29.77 in 9.0 mi Calm Calm - 0.00 in   Overcast
1:31 AM 57.0 °F 54.0 °F 89% 29.76 in 10.0 mi Calm Calm - 0.00 in   Overcast
1:53 AM 57.0 °F 54.0 °F 89% 29.72 in 10.0 mi Calm Calm - 0.00 in Rain Light Rain
2:31 AM 57.0 °F 54.0 °F 89% 29.72 in 3.0 mi NE 3.5 mph - 0.04 in Rain Heavy Rain
2:49 AM 57.2 °F 53.6 °F 88% 29.73 in 1.5 mi Calm Calm - 0.15 in Rain Heavy Rain
2:53 AM 57.0 °F 55.0 °F 93% 29.70 in 1.0 mi Calm Calm - 0.19 in Rain Heavy Rain
3:01 AM 57.0 °F 55.9 °F 96% 29.72 in 1.8 mi Calm Calm - 0.03 in Rain Rain
3:04 AM 57.0 °F 55.9 °F 96% 29.72 in 3.0 mi Calm Calm - 0.04 in Rain Rain
3:53 AM 57.0 °F 55.9 °F 96% 29.67 in 6.0 mi Calm Calm - 0.08 in   Overcast
4:53 AM 57.9 °F 57.9 °F 100% 29.65 in 10.0 mi Calm Calm - 0.01 in   Overcast
5:26 AM 57.9 °F 57.9 °F 100% 29.66 in 3.0 mi Calm Calm - 0.04 in Rain Rain
5:53 AM 57.9 °F 57.9 °F 100% 29.62 in 8.0 mi Calm Calm - 0.06 in Rain Light Rain
6:36 AM 59.0 °F 57.9 °F 96% 29.64 in 1.5 mi Calm Calm - 0.09 in Rain Rain
6:46 AM 57.9 °F 57.0 °F 97% 29.64 in 0.8 mi Calm Calm - 0.10 in Rain Light Rain
6:53 AM 59.0 °F 57.0 °F 93% 29.62 in 2.0 mi NW 3.5 mph - 0.12 in Rain Rain
7:01 AM 59.0 °F 57.9 °F 96% 29.65 in 2.0 mi SW 3.5 mph - 0.06 in Rain Rain
7:07 AM 59.0 °F 57.9 °F 96% 29.64 in 0.8 mi Calm Calm - 0.17 in Rain Heavy Rain
7:16 AM 59.0 °F 59.0 °F 100% 29.65 in 2.0 mi Calm Calm - 0.20 in Rain Rain
7:19 AM 59.0 °F 59.0 °F 100% 29.65 in 3.0 mi Calm Calm - 0.20 in Rain Rain
7:51 AM 60.8 °F 59.0 °F 94% 29.65 in 2.5 mi West 3.5 mph - 0.27 in Rain Light Rain
7:53 AM 60.1 °F 59.0 °F 96% 29.62 in 3.0 mi West 6.9 mph - 0.27 in Rain Light Rain
8:00 AM 60.1 °F 57.9 °F 93% 29.66 in 1.8 mi WSW 6.9 mph - 0.01 in Rain Rain
8:32 AM 62.1 °F 61.0 °F 96% 29.66 in 1.2 mi WNW 3.5 mph - 0.03 in Rain Light Rain
8:53 AM 62.1 °F 61.0 °F 96% 29.65 in 6.0 mi West 3.5 mph - 0.04 in   Overcast
9:26 AM 61.0 °F 59.0 °F 93% 29.69 in 1.8 mi West 5.8 mph - 0.02 in Rain Rain
9:38 AM 61.0 °F 59.0 °F 93% 29.69 in 2.5 mi West 5.8 mph - 0.03 in Rain Light Rain
9:45 AM 61.0 °F 59.0 °F 93% 29.69 in 10.0 mi West 6.9 mph - 0.03 in Rain Light Rain
9:53 AM 61.0 °F 59.0 °F 93% 29.67 in 10.0 mi West 5.8 mph - 0.03 in   Overcast
10:11 AM 61.0 °F 59.0 °F 93% 29.69 in 10.0 mi WSW 5.8 mph - N/A   Overcast
10:53 AM 61.0 °F 57.9 °F 90% 29.68 in 10.0 mi West 6.9 mph - N/A   Overcast
11:53 AM 61.0 °F 57.0 °F 87% 29.68 in 10.0 mi Variable 4.6 mph - 0.00 in Rain Light Rain
12:53 PM 62.1 °F 57.0 °F 84% 29.68 in 10.0 mi SW 8.1 mph - 0.00 in   Overcast
1:53 PM 62.1 °F 57.0 °F 84% 29.67 in 10.0 mi WSW 8.1 mph - N/A   Overcast
2:00 PM 62.1 °F 57.0 °F 84% 29.69 in 9.0 mi WSW 6.9 mph - 0.00 in Rain Light Rain
2:04 PM 62.1 °F 57.0 °F 84% 29.70 in 8.0 mi West 8.1 mph - 0.00 in Rain Light Rain
2:53 PM 62.1 °F 57.0 °F 84% 29.68 in 3.0 mi West 5.8 mph - 0.00 in Rain Light Rain
3:36 PM 62.1 °F 57.9 °F 86% 29.70 in 7.0 mi WSW 4.6 mph - 0.00 in   Overcast
3:53 PM 63.0 °F 57.0 °F 81% 29.67 in 9.0 mi West 5.8 mph - 0.00 in   Overcast
4:53 PM 63.0 °F 55.9 °F 78% 29.67 in 10.0 mi Variable 5.8 mph - N/A   Overcast
5:00 PM 63.0 °F 55.9 °F 78% 29.69 in 10.0 mi WNW 6.9 mph - N/A   Overcast
5:30 PM 63.0 °F 55.9 °F 78% 29.69 in 8.0 mi WSW 6.9 mph - N/A   Overcast
5:37 PM 63.0 °F 55.9 °F 78% 29.69 in 8.0 mi SW 3.5 mph - N/A   Overcast
5:53 PM 63.0 °F 55.9 °F 78% 29.67 in 6.0 mi SW 6.9 mph - N/A   Haze
6:53 PM 62.1 °F 57.0 °F 84% 29.66 in 6.0 mi West 4.6 mph - 0.00 in   Haze
7:53 PM 62.1 °F 55.9 °F 80% 29.67 in 8.0 mi WNW 3.5 mph - N/A   Overcast
8:00 PM 62.1 °F 55.9 °F 80% 29.70 in 8.0 mi WNW 4.6 mph - N/A   Overcast
8:14 PM 61.0 °F 55.0 °F 81% 29.70 in 8.0 mi WSW 3.5 mph - N/A   Overcast
8:50 PM 60.8 °F 55.4 °F 82% 29.71 in 10.0 mi West 6.9 mph - N/A   Overcast
8:53 PM 61.0 °F 55.0 °F 81% 29.69 in 10.0 mi WSW 6.9 mph - N/A   Overcast
9:19 PM 60.1 °F 55.0 °F 83% 29.73 in 10.0 mi West 5.8 mph - N/A   Overcast
9:30 PM 61.0 °F 55.0 °F 81% 29.73 in 10.0 mi West 5.8 mph - N/A   Overcast
9:53 PM 60.1 °F 54.0 °F 80% 29.71 in 10.0 mi WSW 6.9 mph - N/A   Overcast
10:53 PM 59.0 °F 54.0 °F 83% 29.72 in 10.0 mi West 4.6 mph - N/A   Overcast
11:23 PM 59.0 °F 54.0 °F 83% 29.74 in 10.0 mi Calm Calm - N/A   Overcast
11:53 PM 59.0 °F 55.0 °F 87% 29.70 in 9.0 mi Calm Calm - N/A   Overcast